Previsão horária em Jurva

Hoje, 24 Junho, Quinta-feira

Tempo Temperatura Precipitação Vento Pressão Humidade
00:00 +14°C° 0 mm 2 m/s 753 mmHg 90%
01:00 +13°C° 0 mm 2 m/s 753 mmHg 90%
02:00 +14°C° 0 mm 1 m/s 753 mmHg 88%
03:00 +14°C° 0 mm 1 m/s 753 mmHg 85%
04:00 +14°C° 0 mm 1 m/s 754 mmHg 83%
05:00 +16°C° 0 mm 1 m/s 754 mmHg 75%
06:00 +18°C° 0 mm 1 m/s 754 mmHg 68%
07:00 +19°C° 0 mm 2 m/s 754 mmHg 61%
08:00 +20°C° 0 mm 2 m/s 754 mmHg 57%
09:00 +21°C° 0 mm 2 m/s 754 mmHg 52%
10:00 +23°C° 0 mm 2 m/s 754 mmHg 48%
11:00 +24°C° 0 mm 2 m/s 754 mmHg 48%
12:00 +24°C° 0 mm 2 m/s 754 mmHg 48%
13:00 +24°C° 0 mm 2 m/s 754 mmHg 47%
14:00 +24°C° 0 mm 2 m/s 754 mmHg 51%
15:00 +23°C° 0 mm 2 m/s 754 mmHg 55%
16:00 +23°C° 0 mm 2 m/s 753 mmHg 58%
17:00 +21°C° 0 mm 2 m/s 753 mmHg 62%
18:00 +20°C° 0 mm 2 m/s 753 mmHg 66%
19:00 +19°C° 0 mm 2 m/s 753 mmHg 70%
20:00 +19°C° 0 mm 1 m/s 753 mmHg 77%
21:00 +16°C° 0 mm 1 m/s 753 mmHg 85%
22:00 +14°C° 0 mm 1 m/s 753 mmHg 92%
23:00 +14°C° 0 mm 1 m/s 753 mmHg 92%

Amanhã, 25 Junho, Sexta-feira

Tempo Temperatura Precipitação Vento Pressão Humidade
00:00 +14°C° 0 mm 1 m/s 753 mmHg 91%
01:00 +13°C° 0 mm 0 m/s 753 mmHg 90%
02:00 +13°C° 0 mm 0 m/s 753 mmHg 87%
03:00 +14°C° 0 mm 0 m/s 753 mmHg 84%
04:00 +15°C° 0 mm 0 m/s 753 mmHg 81%
05:00 +16°C° 0 mm 0 m/s 753 mmHg 74%
06:00 +18°C° 0 mm 0 m/s 753 mmHg 68%
07:00 +20°C° 0 mm 0 m/s 753 mmHg 61%
08:00 +23°C° 0 mm 1 m/s 753 mmHg 57%
09:00 +24°C° 0 mm 1 m/s 753 mmHg 52%
10:00 +26°C° 0 mm 1 m/s 752 mmHg 48%
11:00 +26°C° 0 mm 1 m/s 752 mmHg 47%
12:00 +26°C° 0 mm 2 m/s 752 mmHg 46%
13:00 +26°C° 0 mm 2 m/s 752 mmHg 45%
14:00 +25°C° 0 mm 2 m/s 752 mmHg 48%
15:00 +25°C° 0 mm 2 m/s 752 mmHg 52%
16:00 +24°C° 0 mm 2 m/s 752 mmHg 56%
17:00 +23°C° 0 mm 2 m/s 752 mmHg 59%
18:00 +21°C° 0 mm 2 m/s 752 mmHg 62%
19:00 +21°C° 0 mm 2 m/s 752 mmHg 65%
20:00 +19°C° 0 mm 2 m/s 752 mmHg 72%
21:00 +17°C° 0 mm 2 m/s 752 mmHg 80%
22:00 +15°C° 0 mm 2 m/s 752 mmHg 87%
23:00 +14°C° 0 mm 2 m/s 752 mmHg 87%

Depois de amanhã, 26 Junho, Sábado

Tempo Temperatura Precipitação Vento Pressão Humidade
00:00 +14°C° 0 mm 2 m/s 752 mmHg 87%
01:00 +14°C° 0 mm 2 m/s 752 mmHg 87%
02:00 +14°C° 0 mm 2 m/s 752 mmHg 85%
03:00 +15°C° 0 mm 2 m/s 752 mmHg 84%
04:00 +15°C° 0 mm 2 m/s 752 mmHg 82%
05:00 +17°C° 0 mm 2 m/s 752 mmHg 75%
06:00 +18°C° 0 mm 3 m/s 752 mmHg 67%
07:00 +20°C° 0 mm 3 m/s 752 mmHg 60%
08:00 +21°C° 0 mm 3 m/s 752 mmHg 56%
09:00 +24°C° 0 mm 3 m/s 752 mmHg 52%
10:00 +25°C° 0 mm 3 m/s 752 mmHg 47%
11:00 +26°C° 0 mm 3 m/s 752 mmHg 46%
12:00 +26°C° 0 mm 3 m/s 752 mmHg 45%
13:00 +27°C° 0 mm 3 m/s 751 mmHg 44%
14:00 +27°C° 0 mm 3 m/s 751 mmHg 45%
15:00 +27°C° 0 mm 3 m/s 751 mmHg 46%
16:00 +27°C° 0 mm 3 m/s 751 mmHg 47%
17:00 +25°C° 0 mm 3 m/s 751 mmHg 54%
18:00 +22°C° 0 mm 3 m/s 751 mmHg 61%
19:00 +21°C° 0 mm 2 m/s 751 mmHg 68%
20:00 +19°C° 0.2 mm 2 m/s 751 mmHg 72%
21:00 +18°C° 0.2 mm 2 m/s 751 mmHg 77%
22:00 +17°C° 0.2 mm 2 m/s 751 mmHg 81%
23:00 +17°C° 0 mm 2 m/s 750 mmHg 82%

27 Junho, Domingo

Tempo Temperatura Precipitação Vento Pressão Humidade
00:00 +16°C° 0 mm 1 m/s 750 mmHg 82%
01:00 +16°C° 0 mm 1 m/s 750 mmHg 83%
02:00 +16°C° 0.1 mm 1 m/s 750 mmHg 84%
03:00 +16°C° 0.1 mm 1 m/s 750 mmHg 85%
04:00 +16°C° 0.1 mm 1 m/s 750 mmHg 86%
05:00 +19°C° 0.1 mm 1 m/s 749 mmHg 82%
06:00 +20°C° 0.1 mm 1 m/s 749 mmHg 79%
07:00 +21°C° 0.1 mm 1 m/s 749 mmHg 75%
08:00 +22°C° 0.2 mm 1 m/s 749 mmHg 70%
09:00 +23°C° 0.2 mm 1 m/s 749 mmHg 65%
10:00 +25°C° 0.2 mm 2 m/s 749 mmHg 60%
11:00 +24°C° 1 mm 2 m/s 749 mmHg 63%
12:00 +24°C° 1 mm 2 m/s 748 mmHg 66%
13:00 +24°C° 1 mm 2 m/s 748 mmHg 69%
14:00 +23°C° 0.7 mm 2 m/s 748 mmHg 73%
15:00 +21°C° 0.7 mm 2 m/s 748 mmHg 78%
16:00 +21°C° 0.7 mm 1 m/s 748 mmHg 82%
17:00 +19°C° 0.1 mm 2 m/s 748 mmHg 83%
18:00 +18°C° 0.1 mm 2 m/s 748 mmHg 85%
19:00 +18°C° 0.1 mm 2 m/s 748 mmHg 86%
20:00 +17°C° 0 mm 2 m/s 748 mmHg 87%
21:00 +16°C° 0 mm 2 m/s 748 mmHg 88%
22:00 +15°C° 0 mm 2 m/s 748 mmHg 89%
23:00 +14°C° 0 mm 2 m/s 748 mmHg 88%

28 Junho, Segunda-feira

Tempo Temperatura Precipitação Vento Pressão Humidade
00:00 +13°C° 0 mm 2 m/s 749 mmHg 87%
01:00 +13°C° 0 mm 2 m/s 749 mmHg 87%
02:00 +13°C° 0 mm 2 m/s 749 mmHg 85%
03:00 +13°C° 0 mm 2 m/s 749 mmHg 83%
04:00 +13°C° 0 mm 2 m/s 749 mmHg 81%
05:00 +13°C° 0 mm 3 m/s 750 mmHg 72%
06:00 +14°C° 0 mm 3 m/s 750 mmHg 64%
07:00 +16°C° 0 mm 3 m/s 750 mmHg 56%
08:00 +17°C° 0 mm 3 m/s 750 mmHg 51%
09:00 +18°C° 0 mm 4 m/s 751 mmHg 47%
10:00 +19°C° 0 mm 4 m/s 751 mmHg 43%
11:00 +20°C° 0 mm 4 m/s 751 mmHg 41%
12:00 +20°C° 0 mm 4 m/s 751 mmHg 40%
13:00 +21°C° 0 mm 4 m/s 751 mmHg 38%
14:00 +21°C° 0 mm 4 m/s 751 mmHg 40%
15:00 +21°C° 0 mm 3 m/s 751 mmHg 41%
16:00 +21°C° 0 mm 3 m/s 751 mmHg 42%
17:00 +20°C° 0 mm 3 m/s 751 mmHg 47%
18:00 +19°C° 0 mm 2 m/s 752 mmHg 53%
19:00 +18°C° 0 mm 2 m/s 752 mmHg 58%
20:00 +16°C° 0 mm 2 m/s 752 mmHg 64%
21:00 +14°C° 0 mm 2 m/s 752 mmHg 69%
22:00 +12°C° 0 mm 1 m/s 752 mmHg 75%
23:00 +12°C° 0 mm 1 m/s 752 mmHg 74%

29 Junho, Terça-feira

Tempo Temperatura Precipitação Vento Pressão Humidade
00:00 +12°C° 0 mm 1 m/s 752 mmHg 74%
01:00 +11°C° 0 mm 1 m/s 753 mmHg 74%
02:00 +12°C° 0 mm 1 m/s 753 mmHg 72%
03:00 +13°C° 0 mm 1 m/s 753 mmHg 70%
04:00 +14°C° 0 mm 1 m/s 753 mmHg 68%
05:00 +16°C° 0 mm 1 m/s 753 mmHg 61%
06:00 +19°C° 0 mm 1 m/s 753 mmHg 55%
07:00 +21°C° 0 mm 1 m/s 753 mmHg 48%
08:00 +22°C° 0 mm 1 m/s 753 mmHg 45%
09:00 +24°C° 0 mm 1 m/s 753 mmHg 42%
10:00 +25°C° 0 mm 1 m/s 753 mmHg 40%
11:00 +25°C° 0 mm 2 m/s 753 mmHg 39%
12:00 +26°C° 0 mm 2 m/s 753 mmHg 38%
13:00 +26°C° 0 mm 2 m/s 753 mmHg 38%
14:00 +26°C° 0 mm 2 m/s 753 mmHg 39%
15:00 +26°C° 0 mm 2 m/s 753 mmHg 39%
16:00 +26°C° 0 mm 2 m/s 753 mmHg 40%
17:00 +25°C° 0 mm 2 m/s 753 mmHg 47%
18:00 +23°C° 0 mm 2 m/s 753 mmHg 53%
19:00 +21°C° 0 mm 2 m/s 753 mmHg 60%
20:00 +19°C° 0 mm 2 m/s 753 mmHg 66%
21:00 +18°C° 0 mm 1 m/s 754 mmHg 71%
22:00 +15°C° 0 mm 1 m/s 754 mmHg 77%
23:00 +15°C° 0 mm 1 m/s 754 mmHg 77%
Mostrar mais

Necessitamos do seu Consentimento

A Meteoprog e os seus Fornecedores de Serviços podem armazenar e aceder a dados pessoais como cookies, identificadores do dispositivo ou outras tecnologias semelhantes existentes no seu dispositivo e processar estes dados para personalizar conteúdos e anúncios, assim como funcionalidades nas redes sociais e análise de tráfego.

  • Armazenar e/ou aceder a informações no seu dispositivo

    Os cookies, identificadores do dispositivo ou outras informações podem ser armazenados ou acedidos no seu dispositivo, para os fins acima indicados.

  • Anúncios e conteúdos personalizados, medição de anúncios e conteúdos, dados sobre o público-alvo e desenvolvimento de produtos

    Os anúncios e os conteúdos podem ser personalizados com base num perfil. Podem ser adicionados dados adicionais para uma maior personalização dos anúncios e dos conteúdos. A eficácia dos anúncios e dos conteúdos pode ser medida. Podem ser obtidas informações sobre o público que visualizou os anúncios e os conteúdos. Estes dados podem ser usados para desenvolver ou melhorar sistemas, softwares ou a experiência do utilizador.

Ao clicar em "Eu concordo”, permitirá o uso de cookies, identificadores do dispositivo e web beacons mencionados ou outras tecnologias semelhantes. As configurações do navegador do seu dispositivo podem ser alteradas.

Para certos fins, podem ser invocados interesses legítimos ao invés de consentimento. Pode ler mais informação sobre este assunto na nossa Política de Privacidade e Cookies.